Terug naar catalogus

KSLV-II R/B

ActiefSSO
NORAD 56750·ROCKET BODY·🇰🇷 South Korea

Gelanceerd May 25, 2023 vanaf Naro Space Center

Loading…

Volgende Passages (komende 24 uur)

TLE

VersSource: Space-Track

Epoch: Sep 13, 2026, 14:01 UTC

1 56750U 23072H   26256.58466926  .00006153  00000-0  17796-3 0  9992
2 56750  97.4794 104.6732 0024291  10.3824 349.7916 15.35707471183959

Volg KSLV-II R/B in realtime met AllMySat

Download on the App Store